COSMOS 1275 DEB

Satellite information

Favourite Embed

Satellite Type and Status

DEBRISIN ORBIT

Key statistics

Satellite COSMOS 1275 DEB at a glance.

Uptime

16263

Days in orbit

Revolutions

≈ 14.1

Per day

Orbit

LEO

Low Earth Orbit

Inclination

83.0

Latest

Satellite identification and parameters

Extended collection of information and parameters for COSMOS 1275 DEB.

Object identification

Identified? True

Debris? True

Object name: COSMOS 1275 DEB

International designator: 1981-053DL

Object number (NORAD): 12767

Object ID (CCSDS): 12767

Country: COMMONWEALTH OF INDEPENDENT STATES (CIS)

Current information (Y/N): Y

RCS size: SMALL

Orbital parameters

Period: 102.042 minutes

Inclination: 82.9568 deg

SMA: 7233.464 km

Apoapsis: 889.556 km

Periapsis: 821.101 km

RAAN: 263.6233 deg

Eccentricy: 0.00473181

Argument of periapsis: 316.3318 deg

Mean anomaly: 164.4353 deg

Mean motion: 14.11182887 rev/day

Mean motion (dot): 0.00001915 rev/day2

B* drag term: 0.0010432189 1/REarth

Two-line elements (TLE)

Creation date: Dec. 12, 2025, 10:14 a.m.

Reference frame: TEME

Reference center: EARTH

Epoch: Dec. 12, 2025, 6:26 a.m. UTC

TLE line 0: 0 COSMOS 1275 DEB

TLE line 1: 1 12767U 81053DL 25346.26813512 .00001915 00000-0 10432-2 0 9996

TLE line 2: 2 12767 82.9568 263.6233 0047318 316.3318 164.4353 14.11182887265039

Live tracking on map

Real-time ground track for satellite COSMOS 1275 DEB.

In-orbit conjunctions

A list of the most updated potential collisions computed for object COSMOS 1275 DEB.

Target Orbit TCA Probability of collision Miss distance Type
CZ-6A DEB LEO 2025-02-04 00:51:28 0.0001464959 759.0 (m) DEBRIS
CZ-2D R/B SSO 2025-01-28 00:39:28 0.0005211118 109.0 (m) ROCKET BODY
FENGYUN 1C DEB SSO 2024-12-18 18:46:14 0.000126169 120.0 (m) DEBRIS
FENGYUN 1C DEB SSO 2024-12-02 23:03:24 0.0001575765 74.0 (m) DEBRIS
THORAD AGENA D DEB SSO 2024-09-24 12:22:09 0.0009525586 56.0 (m) DEBRIS

Associated space launch

Navigation satellite providing location information for the Tsiklon-B navigation system

COSMOS 1275 DEB was lifted into orbit during the mission ‘Kosmos-3M | Parus 27’, on board a Kosmos-3M space rocket.

The launch took place on June 4, 1981, 3:41 p.m. from 132/2.

For more information about the launch, click the button.

Launch to space Kosmos-3M | Parus 27
Kosmos-3M | Parus 27

Agency: N/A

Status: Launch Successful

Launch date: June 4, 1981, 3:41 p.m. UTC

Rocket: Kosmos-3M

Launch pad: 132/2

Location: Plesetsk Cosmodrome, Russian Federation

...

Latest news about this satellite

There are no fresh news available about this satellite. Check back as we update our databases every day.


Newsletter sign-up

Weekly statistics, charts and insights to help you stay on top of the space industry.